Regional Weather Roundup
Issued by NWS

Home | Current Version | Previous Version | Text Only | Print | Product List | Glossary Off
Versions: 1 2 3 4 5 6 7 8 9 10 11 12 13 14 15 16 17 18 19 20 21 22 23 24 25 26 27 28 29 30 31 32 33 34 35 36 37 38 39 40 41 42 43 44 45 46 47 48 49 50

000
ASUS43 KOAX 191210
RWRNE

WEATHER ROUNDUP FOR NEBRASKA
NATIONAL WEATHER SERVICE OMAHA NE
700 AM CDT THU APR 19 2018

NOTES: SATELLITE DATA IS BEING USED TO AUGMENT CLOUD COVER ABOVE
       12000 FEET.
       "FAIR" INDICATES FEW OR NO CLOUDS BELOW 12,000 FEET WITH NO
       SIGNIFICANT WEATHER AND/OR OBSTRUCTIONS TO VISIBILITY.


NEZ001>004-019>022-054>056-191300-
NEBRASKA PANHANDLE

CITY           SKY/WX    TMP DP  RH WIND       PRES   REMARKS
SCOTTSBLUFF    CLEAR     29  28  96 E9        30.32R WCI  20
6HR MIN TEMP:  28; 6HR MAX TEMP:  36;

ALLIANCE       CLEAR     29  28  96 SE5       30.33R WCI  24
6HR MIN TEMP:  26; 6HR MAX TEMP:  32;

CHADRON        CLEAR     26  24  92 CALM      30.34R
6HR MIN TEMP:  26; 6HR MAX TEMP:  38;

GORDON         FAIR      24  22  92 CALM      30.35R
6HR MIN TEMP:  23; 6HR MAX TEMP:  29;

KIMBALL        CLEAR     26  22  85 SE7       30.30S WCI  18
SIDNEY         CLEAR     28  25  88 SE10      30.33S WCI  19
6HR MIN TEMP:  26; 6HR MAX TEMP:  32;

$$

NEZ057>060-069>072-079>082-191300-
SOUTHWEST NEBRASKA

CITY           SKY/WX    TMP DP  RH WIND       PRES   REMARKS
NORTH PLATTE   CLEAR     22  19  89 CALM      30.40R
6HR MIN TEMP:  22; 6HR MAX TEMP:  33;

IMPERIAL       CLEAR     24  23  96 NE5       30.38R WCI  18
6HR MIN TEMP:  24; 6HR MAX TEMP:  34;

LEXINGTON      CLEAR     26  24  89 NW5       30.41S WCI  21
MCCOOK         CLEAR     23  22  96 W3        30.40S
6HR MIN TEMP:  23; 6HR MAX TEMP:  38;

OGALLALA       CLEAR     28  26  94 CALM      30.39R
$$

NEZ005>010-023>029-035>040-094-191300-
NORTH CENTRAL NEBRASKA

CITY           SKY/WX    TMP DP  RH WIND       PRES   REMARKS
VALENTINE      CLEAR     22  20  92 SW5       30.39R WCI  16
6HR MIN TEMP:  22; 6HR MAX TEMP:  31;

AINSWORTH      CLEAR     25  25 100 W6        30.39R WCI  18
BROKEN BOW     CLEAR     24  21  88 CALM      30.40R
6HR MIN TEMP:  23; 6HR MAX TEMP:  31;

O`NEILL        CLEAR     29  28  94 N7        30.39R WCI  22
ORD            CLEAR     26  25  96 NW3       30.39R
6HR MIN TEMP:  25; 6HR MAX TEMP:  32;

THEDFORD       CLEAR     26  25  96 CALM      30.39S
$$

NEZ041-046>049-061>064-073>077-083>087-191300-
SOUTH CENTRAL NEBRASKA

CITY           SKY/WX    TMP DP  RH WIND       PRES   REMARKS
GRAND ISLAND   CLEAR     27  25  92 W7        30.41R WCI  19
6HR MIN TEMP:  27; 6HR MAX TEMP:  34;

AURORA         CLEAR     26  25  99 W7        30.40R WCI  18
HASTINGS       CLEAR     26  25  96 W6        30.41R WCI  19
6HR MIN TEMP:  25; 6HR MAX TEMP:  32;

HEBRON         CLEAR     28  27  96 W5        30.42R WCI  23
HOLDREGE       CLEAR     27  26  96 NW5       30.42R WCI  21
KEARNEY        CLEAR     26  23  88 NW7       30.42R WCI  18
YORK             N/A     27  27 100 N3        30.40R
$$

NEZ011>018-030>034-042>045-191300-
NORTHEAST NEBRASKA

CITY           SKY/WX    TMP DP  RH WIND       PRES   REMARKS
NORFOLK        CLEAR     27  27 100 N6        30.39R WCI  20
6HR MIN TEMP:  27; 6HR MAX TEMP:  33;

ALBION         CLEAR     28  27  96 N6        30.39R WCI  21
BLAIR          CLEAR     32  29  90 NW5       30.39R WCI  27
COLUMBUS       CLEAR     29  28  96 N6        30.40R WCI  23
FREMONT        CLEAR     30  29  97 W5        30.41R WCI  25
TEKAMAH        CLEAR     27  26  96 N6        30.40R WCI  20
6HR MIN TEMP:  27; 6HR MAX TEMP:  34;

WAYNE          CLEAR     29  28  96 CALM      30.40R
$$

NEZ050>053-065>068-078-088>093-191300-
SOUTHEAST NEBRASKA

CITY           SKY/WX    TMP DP  RH WIND       PRES   REMARKS
LINCOLN        CLEAR     28  27  96 N3        30.41R
6HR MIN TEMP:  24; 6HR MAX TEMP:  39;

OMAHA EPPLEY   CLEAR     28  25  88 NW5       30.40R WCI  23
6HR MIN TEMP:  26; 6HR MAX TEMP:  35;

BEATRICE       CLEAR     25  23  93 NW5       30.41R WCI  19
FALLS CITY     CLEAR     27  24  89 NW5       30.40R WCI  22
6HR MIN TEMP:  27; 6HR MAX TEMP:  40;

NEBRASKA CITY  CLEAR     29  29 100 NW7       30.40R WCI  22
PLATTSMOUTH    CLEAR     28  26  91 W9        30.39R WCI  20
$$

NEZ044-045-051>053-067-191300-
OMAHA AREA

CITY           SKY/WX    TMP DP  RH WIND       PRES   REMARKS
OMAHA EPPLEY   CLEAR     28  25  88 NW5       30.40R WCI  23
6HR MIN TEMP:  26; 6HR MAX TEMP:  35;

BLAIR          CLEAR     32  29  90 NW5       30.39R WCI  27
FREMONT        CLEAR     30  29  97 W5        30.41R WCI  25
MILLARD        CLEAR     32  29  90 NW5       30.41R WCI  27
OFFUTT AFB     PTCLDY    28  26  91 NW5       30.39R WCI  23
PLATTSMOUTH    CLEAR     28  26  91 W9        30.39R WCI  20
WAHOO          FAIR      31  28  85 NW8       30.40R WCI  24
$$




USA.gov is the U.S. government's official web portal to all federal, state and local government web resources and services.